This demonstration page uses our WeatherBlox Daily Observations layout. Learn more.

Left ArrowRight Arrow

44.8408, -93.29828

Hourly Observations for May 27, 2016

Temp ( °F °C ) Dew Point ( °F °C ) Humidity (%) Winds ( mph kmh ) Pressure ( in mb ) Visibility ( mi km ) Precip ( " mm )
12:53 am 00:53 Cloudy 69 20.6 54 12.2 59 59 SE 3 6 29.82 1010 10 16 0.00 0.00
1:53 am 01:53 Cloudy 70 21.1 53 11.7 55 55 S 7 11 29.83 1010 10 16 0.00 0.00
2:53 am 02:53 Cloudy 69 20.6 55 12.8 61 61 SE 5 7 29.81 1010 10 16 0.00 0.00
3:53 am 03:53 Cloudy 69 20.6 56 13.3 63 63 SE 8 13 29.79 1009 10 16 0.00 0.00
4:53 am 04:53 Cloudy 68 20 55 12.8 63 63 SE 9 15 29.79 1009 10 16 0.00 0.00
5:53 am 05:53 Cloudy 67 19.4 56 13.3 68 68 SE 8 13 29.77 1008 10 16 0.00 0.03
6:53 am 06:53 Mostly Cloudy 67 19.4 56 13.3 68 68 SE 8 13 29.77 1008 10 16 0.00 0.00
7:53 am 07:53 Cloudy 66 18.9 58 14.4 75 75 SE 8 13 29.79 1009 10 16 0.01 0.25
8:53 am 08:53 Cloudy 67 19.4 58 14.4 73 73 SE 18 30 29.79 1009 10 16 0.00 0.03
9:53 am 09:53 Cloudy with Light Rain 66 18.9 58 14.4 75 75 SE 14 22 29.82 1010 10 16 0.00 0.03
10:53 am 10:53 Cloudy with Light Rain 64 17.8 60 15.6 87 87 SE 12 19 29.83 1010 4 6 0.04 1.02
11:53 am 11:53 Cloudy with Light Rain 64 17.8 60 15.6 87 87 SE 3 6 29.81 1009 6 10 0.03 0.76
12:03 pm 12:03 Cloudy with Light Rain 64 18 61 16 88 88 SE 3 6 29.80 1009 5 8 0.00 0.00
12:43 pm 12:43 Cloudy with Light Rain 64 17.8 60 15.6 87 87 Calm 29.80 1009 3 4 0.03 0.76
12:53 pm 12:53 Cloudy with Light Rain 64 17.8 60 15.6 87 87 Calm 29.79 1009 3 5 0.05 1.27
1:53 pm 13:53 Cloudy with Light Rain 64 17.8 60 15.6 87 87 N 5 7 29.79 1009 6 10 0.02 0.51
2:10 pm 14:10 Cloudy with Light Rain 64 18 61 16 88 88 NNW 5 7 29.80 1009 3 4 0.00 0.00
2:22 pm 14:22 Cloudy with Light Rain 64 18 61 16 88 88 N 6 9 29.80 1009 3 4 0.00 0.00
2:41 pm 14:41 Cloudy with Rain 64 17.8 60 15.6 87 87 NNE 5 7 29.80 1009 3 4 0.05 1.27
2:53 pm 14:53 Cloudy with Light Rain 64 17.8 60 15.6 87 87 N 8 13 29.78 1009 3 5 0.06 1.52
3:01 pm 15:01 Cloudy with Light Rain 64 17.8 60 15.6 87 87 NNE 8 13 29.80 1009 4 6 0.00 0.03
3:53 pm 15:53 Cloudy 65 18.3 61 16.1 87 87 N 8 13 29.75 1008 10 16 0.00 0.03
4:27 pm 16:27 Cloudy 65 18.3 61 16.1 87 87 N 8 13 29.77 1008 10 16 0.00 0.00
4:53 pm 16:53 Cloudy with Light Rain 65 18.3 61 16.1 87 87 N 7 11 29.76 1008 3 5 0.00 0.03
5:22 pm 17:22 Cloudy 64 18 63 17 94 94 NNW 5 7 29.77 1008 7 11 0.00 0.00
5:53 pm 17:53 Cloudy 66 18.9 62 16.7 87 87 NNW 5 7 29.75 1008 8 13 0.03 0.76
6:22 pm 18:22 Mostly Cloudy 66 19 63 17 88 88 N 7 11 29.74 1007 9 14 0.00 0.00
6:53 pm 18:53 Mostly Cloudy 66 18.9 61 16.1 84 84 N 7 11 29.73 1007 10 16 0.00 0.00
7:30 pm 19:30 Mostly Cloudy 66 19 61 16 83 83 NNE 7 11 29.74 1007 10 16 0.00 0.00
7:46 pm 19:46 Mostly Cloudy 66 18.9 61 16.1 84 84 N 7 11 29.74 1007 10 16 0.00 0.00
7:53 pm 19:53 Partly Cloudy 65 18.3 60 15.6 84 84 N 7 11 29.73 1007 10 16 0.00 0.00
8:35 pm 20:35 Mostly Cloudy 64 17.8 60 15.6 87 87 NNW 6 9 29.74 1007 10 16 0.00 0.00
8:53 pm 20:53 Mostly Cloudy 64 17.8 60 15.6 87 87 NNW 6 9 29.73 1007 10 16 0.00 0.00
9:53 pm 21:53 Cloudy 64 17.8 60 15.6 87 87 NNW 5 7 29.74 1007 9 14 0.00 0.00
10:53 pm 22:53 Cloudy 64 17.8 60 15.6 87 87 NNW 3 6 29.75 1007 9 14 0.00 0.00
11:53 pm 23:53 Cloudy 64 17.8 60 15.6 87 87 W 3 6 29.76 1008 9 14 0.00 0.00
11:57 pm 23:57 Cloudy 64 17.8 60 15.6 87 87 NW 5 7 29.77 1008 9 14 0.00 0.00

Powered by AerisWeather